Flag for United Kingdom Weather past 2 weeks in Reading, England, United Kingdom

Now
45 °F

Overcast.


Feels Like: 41 °F
Forecast: N/A
Wind: 7 mph from South

Location: Benson

Current Time: Jan 25, 2015 at 5:14:45 PM

Latest Report: Jan 25, 2015 at 4:50 PM


Visibility: N/A

Pressure: 30.36 "Hg

Humidity: 87%

Dew point: 41 °F

Location of ReadingLocation

Historic Weather in Reading — Graph

°F

Reading temperature yesterday

Maximum temperature yesterday: 46 °F (at 12:50 AM)
Minimum temperature yesterday: 28 °F (at 10:50 PM)
Average temperature yesterday: 37 °F

Past Weeks' High & Low Weather Summary

 TemperatureHumidityPressure
High54 °F (Jan 12, 11:50 PM)100% (Jan 15, 12:50 AM)30.48 "Hg (Jan 15, 12:50 AM)
Low18 °F (Jan 23, 12:50 AM)57% (Jan 10, 3:50 PM)29.09 "Hg (Jan 15, 1:50 AM)
Average38 °F85%29.88 "Hg
* Reported Jan 10 3:50 PM — Jan 25 3:50 PM, Reading, Weather by CustomWeather, © 2014

Note: Actual official high and low records may vary slightly from our data, if they occured in-between our weather recording intervals... More about our weather records

Advertising

Reading weather history for previous 24 hours

 ConditionsComfort  
Time TempWeatherWind HumidityBarometerVisibility
3:50 PM
Jan 25
46 °FPartly sunny.9 mph82%30.36 "HgN/A
2:50 PM46 °FPassing clouds.13 mph76%30.36 "HgN/A
1:50 PM46 °FOvercast.12 mph76%30.39 "HgN/A
12:50 PM45 °FPartly sunny.9 mph81%30.39 "HgN/A
11:50 AM43 °FPartly sunny.10 mph81%30.42 "HgN/A
10:50 AM41 °FSunny.10 mph81%30.42 "Hg10 mi
9:50 AM39 °FPartly sunny.7 mph81%30.45 "HgN/A
8:50 AM37 °FPartly sunny.7 mph87%30.45 "HgN/A
7:50 AM34 °FPassing clouds.6 mph93%30.45 "HgN/A
6:50 AM32 °FPassing clouds.3 mph93%30.45 "HgN/A
5:50 AM28 °FPassing clouds.2 mph100%30.45 "HgN/A
4:50 AM25 °FClear.3 mph93%30.45 "HgN/A
3:50 AM25 °FClear.3 mph93%30.48 "HgN/A
2:50 AM23 °FClear.1 mph93%30.48 "HgN/A
1:50 AM30 °FClear.No wind86%30.48 "HgN/A
12:50 AM27 °FClear.3 mph86%30.45 "HgN/A
11:50 PM
Jan 24
32 °FClear.3 mph93%30.48 "HgN/A
10:50 PM28 °FClear.3 mph93%30.48 "HgN/A
9:50 PM30 °FClear.2 mph86%30.48 "HgN/A
8:50 PM30 °FClear.3 mph86%30.48 "HgN/A
7:50 PM30 °FClear.7 mph86%30.45 "HgN/A
6:50 PM32 °FPassing clouds.6 mph80%30.45 "HgN/A
5:50 PM32 °FPassing clouds.5 mph87%30.42 "HgN/A
Weather by CustomWeather, © 2014

See weather overviewHow to use our weather pages